Location: Devargunta
(16.7631°N, 80.9077°E)
Time: 09:18:28
(UTC+00:00)

Delta 198 - Pass Details

Date: 19 January 2021
Orbit: 458 x 1018 km, 24.8° (Epoch: 28 February)

Event Time Altitude Azimuth Distance (km) Brightness Sun altitude
Exits shadow 23:28:36 33° 40° (NE) 794 4.3 -23.7°
Drops below altitude 10° 23:31:16 10° 81° (E) 1,587 6.6 -23.1°
Sets 23:33:29 0° 90° (E) 2,453 8.0 -22.6°
